This is the latest recevied weather packets stored in our database for station/object N6SPP. If no packets are shown the sender has not sent any weather packets the latest 10 day(s).
| Time | Temp. | Humidity | Pressure | Rain* | Wind** | Luminosity | Snow |
|---|---|---|---|---|---|---|---|
| 1777672552 | 25.56° C | 48% | 1014.8 hPa | 0 mm | - | 523 W/m² | - |
| 1777672247 | 25.56° C | 48% | 1014.9 hPa | 0 mm | - | 593 W/m² | - |
| 1777671943 | 26.11° C | 48% | 1015 hPa | 0 mm | - | 635 W/m² | - |
| 1777671638 | 26.11° C | 47% | 1015 hPa | 0 mm | - | 627 W/m² | - |
| 1777671336 | 26.11° C | 48% | 1015 hPa | 0 mm | - | 641 W/m² | - |
| 1777671031 | 26.67° C | 47% | 1015 hPa | 0 mm | - | 635 W/m² | - |
| 1777670728 | 26.67° C | 45% | 1015.2 hPa | 0 mm | - | 639 W/m² | - |
| 1777670425 | 26.11° C | 45% | 1015.1 hPa | 0 mm | - | 600 W/m² | - |
| 1777670122 | 26.67° C | 46% | 1014.9 hPa | 0 mm | - | 640 W/m² | - |
| 1777669820 | 26.67° C | 44% | 1015.2 hPa | 0 mm | - | 586 W/m² | - |
| 1777669516 | 26.11° C | 46% | 1015.2 hPa | 0 mm | - | 623 W/m² | - |
| 1777669213 | 25.56° C | 46% | 1015.1 hPa | 0 mm | - | 659 W/m² | - |
| 1777668909 | 25.56° C | 46% | 1015 hPa | 0 mm | - | 656 W/m² | - |
| 1777668607 | 25.56° C | 47% | 1015.1 hPa | 0 mm | - | 745 W/m² | - |
| 1777668303 | 25° C | 47% | 1015.3 hPa | 0 mm | - | 761 W/m² | - |
| 1777667999 | 25° C | 47% | 1015.3 hPa | 0 mm | - | 727 W/m² | - |
| 1777667696 | 26.11° C | 46% | 1015.4 hPa | 0 mm | - | 706 W/m² | - |
| 1777667394 | 25.56° C | 46% | 1015.3 hPa | 0 mm | - | 672 W/m² | - |
| 1777667090 | 25° C | 47% | 1015.3 hPa | 0 mm | - | 659 W/m² | - |
| 1777666786 | 25° C | 47% | 1015.3 hPa | 0 mm | - | 616 W/m² | - |
| 1777666484 | 25.56° C | 47% | 1015.6 hPa | 0 mm | - | 693 W/m² | - |
| 1777666181 | 26.67° C | 45% | 1015.4 hPa | 0 mm | - | 696 W/m² | - |
| 1777665878 | 25.56° C | 45% | 1015.4 hPa | 0 mm | - | 693 W/m² | - |
| 1777665575 | 25° C | 46% | 1015.4 hPa | 0 mm | - | 692 W/m² | - |
| 1777665272 | 25° C | 47% | 1015.5 hPa | 0 mm | - | 734 W/m² | - |
* Rain latest hour (hover to see other rain measurements)
** Current wind speed in m/s (hover to see current wind gust speed)